Capri, Italy

9:31 AM CEST on October 22, 2017 (GMT +0200)
Capri

Weather History for LIQC - October, 2013

Change the Weather History Date:

Monday, October 14, 2013

  Actual Average (LIRN) Record (LIRN)
Temperature  
Mean Temperature 71 °F -  
Max Temperature 78 °F 71 °F 86 °F (2000)
Min Temperature 64 °F 55 °F 53 °F (1997)
Cooling Degree Days 6    
Growing Degree Days 21 (Base 50)    
Moisture  
Dew Point 65 °F    
Average Humidity 86    
Maximum Humidity 100    
Minimum Humidity 60    
Precipitation  
Precipitation 0.00 in - - ()
Sea Level Pressure  
Sea Level Pressure 30.13 in    
Wind  
Wind Speed 3 mph ()    
Max Wind Speed 8 mph    
Max Gust Speed -    
Visibility 7.0 miles    
Events      
Averages and records for this station are not official NWS values.
T = Trace of Precipitation, MM = Missing Value Source: Averaged Metar Reports

Daily Weather History Graph

Daily Weather History Graph

Search for Another Location

Airport or City:

Trip Planner

Search our weather history database for the weather conditions in past years. The results will help you decide how hot, cold, wet, or windy it might be!

Date:

Astronomy

Oct. 14, 2013 Rise Set
Actual Time 7:13 AM CEST 6:24 PM CEST
Civil Twilight 6:45 AM CEST 6:52 PM CEST
Nautical Twilight 6:13 AM CEST 7:23 PM CEST
Astronomical Twilight 5:42 AM CEST 7:55 PM CEST
Moon 3:44 PM CEST (10/14) 2:09 AM CEST (10/14)
Length of Visible Light 12h 06m
Length of Day
11h 11m
Waxing Gibbous, 77% of the Moon is Illuminated
Oct 14
Waxing Gibbous
Oct 19
Full
Oct 27
Last Quarter
Nov 3
New
Nov 10
First Quarter

Hourly Weather History & Observations

Time (CEST) Temp. Dew Point Humidity Pressure Visibility Wind Dir Wind Speed Gust Speed Precip Events Conditions
2:00 AM 68 °F 63 °F 80% 30.14 in 6 mi 2.3 mph - -  
5:55 AM 66.2 °F 62.6 °F 88% 30.12 in - North - - N/A   Clear
6:55 AM 64.4 °F 60.8 °F 88% 30.12 in - North - - N/A   Clear
7:55 AM 64.4 °F 62.6 °F 94% 30.12 in - North - - N/A   Clear
8:55 AM 64.4 °F 62.6 °F 94% 30.12 in - North - - N/A   Clear
9:55 AM 66.2 °F 64.4 °F 94% 30.15 in - North - - N/A   Clear
10:55 AM 66.2 °F 62.6 °F 88% 30.15 in - North - - N/A   Clear
11:00 AM 66 °F 63 °F 87% 30.15 in 6 mi 8.1 mph - -   Clear
11:55 AM 69.8 °F 64.4 °F 83% 30.15 in - North - - N/A   Clear
12:55 PM 73.4 °F 64.4 °F 73% 30.15 in - North - - N/A   Clear
1:55 PM 73.4 °F 68.0 °F 83% 30.12 in - North - - N/A   Partly Cloudy
2:00 PM 73 °F 68 °F 78% 30.12 in 6 mi 3.5 mph - -   Scattered Clouds
2:55 PM 73.4 °F 68.0 °F 83% 30.12 in - North - - N/A   Clear
3:55 PM 75.2 °F 68.0 °F 78% 30.12 in - North - - N/A   Clear
4:55 PM 78.8 °F 66.2 °F 65% 30.12 in - North - - N/A   Clear
5:00 PM 78 °F 67 °F 60% 30.11 in 6 mi 3.5 mph - -   Partly Cloudy
5:55 PM 77.0 °F 66.2 °F 69% 30.12 in - North - - N/A   Clear
6:55 PM 69.8 °F 69.8 °F 100% 30.12 in - North - - N/A   Clear
7:55 PM 68.0 °F 66.2 °F 94% 30.12 in - North - - N/A   Clear
8:00 PM 68 °F 66 °F 93% 30.12 in 6 mi 2.3 mph - -   Partly Cloudy
8:55 PM 68.0 °F 66.2 °F 94% 30.12 in - North - - N/A   Clear
9:55 PM 68.0 °F 66.2 °F 94% 30.12 in - North - - N/A   Clear
10:55 PM 68.0 °F 66.2 °F 94% 30.12 in - North - - N/A   Clear
11:00 PM 68 °F 66 °F 90% 30.13 in 12 mi 5.8 mph - -   Scattered Clouds
11:55 PM 68.0 °F 66.2 °F 94% 30.12 in - North - - N/A   Scattered Clouds